DIAMANT B-P4 R/B, 7647

Orbit data source: Space-Track

DIAMANT B-P4 R/B, 7647 is space debris in LEO originally from a launch on Thu, 06 Feb 1975 UTC launched from the French Guiana (FRGUI). Debris objects in space refer to the collection of defunct objects orbiting the Earth. Examples of debris include non-operational satellites, rocket bodies, and fragments generated from explosions, collisions, or faulty payload assembly.

Loading next visibility...
Identifier
7647, 1975-010B
Orbit
LEO
Country
Flag of FRFR
Related business
Manufacturer
Ae/Cannes
Mission
Spacecraft
Bus & Motor
RUBIS, Unknown motor
Mass
~95 kg wet, ~95 kg dry
Launch date (UTC)
1975-02-06 (51 years ago)
Launch vehicle
Unknown
Launch site
French Guiana (FRGUI)
Object type
Payload
Rocket body
Debris
Shape & HBR
Unknown
Radar Cross Section
Medium (>0.1 m² and <1 m²)

Expand to show TLE details & history
Last TLE update: 6 hours ago

TLE from 6 hours ago
0 DIAMANT B-P4 R/B
1 07647U 75010B   26038.23699855 -.00000013  00000-0  99534-4 0  9992
2 07647  49.8251 100.8366 0217498 177.5976 182.6013 13.82328094573064
Epoch: 2026-02-07T05:41Z
TLE epoch observation values (Epoch: 2026-02-07T05:41:16.674Z)
Latitude
0.00002°
Longitude
-121.84627°
Altitude
1,115.485 km
Speed
7.216 km/s
True Right ascension
06h 43m 20s
True Declination
0° 00' 00"
Sunlit
Object was in full shadow at epoch
Visualization orbit readout
Latitude
Unknown
Longitude
Unknown
Altitude
Unknown
Speed
Unknown
Apparent Right ascension
Unknown
Apparent Declination
Unknown
Sunlit
N/A
Visualization observer readout
Local Sidereal Time
13:50:40
Azimuth
Unknown
Elevation
Unknown
Doppler factor
Unknown
Orbital elements
Apogee altitude
1,115.917 km
Perigee altitude
796.868 km
Semi-major axis
7,334.529 km
Eccentricity
0.02175
Inclination
49.8251°
RAAN
100.8366°
Arg. of periapsis
177.5976°
True anomaly
182.49118°
Mean anomaly
182.6013°
Eccentric anomaly
182.54594°
Mean motion
3.45529 °/min
Orbital period
104.19 mins
BSTAR
0.000099534
Loading maneuver chart data...
Computing Atmospheric mass density...
Loading historical data...
Loading historical data...
Loading historical data...
Loading historical data...
Loading historical data...
Loading historical data...
Loading historical data...
Other satellites on launch #10 in the year 1975 (1975-02-06 UTC)

Documentation

Showing up to 5 results
|